Pasco, WA
on Monday, February 25, 2013

Monday
Previous Day Next Day
Daily Summary
 ActualAverageRecord
Temperature
Mean Temperature °F 41°F  
Max Temperature 53°F 53°F 62°F (1995)
Min Temperature 31°F 29°F 7°F (1993)
Degree Days
Heating Degree Days 23 24  
Month to date heating degree days 643 661  
Since 1 July heating degree days 3554 3812  
Cooling Degree Days 0 0  
Month to date cooling degree days 0 0  
Year to date cooling degree days 0 0  
Moisture
Dew Point 29°F   
Average Humidity 54    
Maximum Humidity 78    
Minimum Humidity 30    
Precipitation
Precipitation 0.05 in in 0.17 in (1996)
Month to date precipitation 0.06  
Year to date precipitation 0.42  
Snow
Snow 0.00 in in in ()
Snow Depth 0.00 in   
Wind
Wind Speed 13 mph   
Max Wind Speed 33 mph   
Max Gust Speed 45 mph   
Visibility 10 miles   
Events Rain   

Key: T is trace of precipitation, MM is missing value
Source: NWS Daily Summary
Time(PST)TemperatureDew PointHumidity Pressure Visibility Wind DirectionWind SpeedGust SpeedPrecipitationEvents Conditions
12:53 AM 32.0°F 27.0°F 82% 30.04 in 10.0 miles East 5.8 mph - N/A   Mostly Cloudy
1:53 AM 36.0°F 28.0°F 73% 30.02 in 10.0 miles ESE 3.5 mph - N/A   Mostly Cloudy
2:53 AM 36.0°F 30.9°F 82% 30.02 in 10.0 miles Calm Calm - 0.01 in Rain Light Rain
3:53 AM 37.9°F 34.0°F 86% 29.97 in 10.0 miles East 11.5 mph - 0.03 in   Overcast
4:53 AM 39.0°F 33.1°F 79% 29.98 in 10.0 miles SE 11.5 mph - 0.00 in Rain Light Rain
5:53 AM 43.0°F 35.1°F 74% 29.97 in 10.0 miles South 12.7 mph - 0.00 in   Overcast
6:53 AM 43.0°F 34.0°F 71% 29.99 in 10.0 miles SW 9.2 mph - N/A   Clear
7:53 AM 41.0°F 34.0°F 76% 30.00 in 10.0 miles SW 21.9 mph 29.9 mph N/A   Clear
8:53 AM 44.1°F 34.0°F 68% 30.01 in 10.0 miles SW 28.8 mph 40.3 mph 0.01 in   Clear
10:53 AM 48.0°F 33.1°F 56% 30.03 in 10.0 miles SW 27.6 mph 39.1 mph N/A   Clear
11:53 AM 51.1°F 32.0°F 48% 30.04 in 10.0 miles SW 23.0 mph 33.4 mph N/A   Clear
12:53 PM 51.1°F 28.9°F 43% 30.03 in 10.0 miles WSW 20.7 mph 27.6 mph N/A   Scattered Clouds
1:53 PM 53.1°F 25.0°F 34% 30.03 in 10.0 miles West 16.1 mph 28.8 mph N/A   Clear
2:53 PM 51.1°F 24.1°F 35% 30.04 in 10.0 miles West 20.7 mph 31.1 mph N/A   Scattered Clouds
3:53 PM 52.0°F 21.9°F 31% 30.05 in 10.0 miles West 18.4 mph 24.2 mph N/A   Clear
4:53 PM 52.0°F 21.0°F 30% 30.06 in 10.0 miles West 24.2 mph 32.2 mph N/A   Scattered Clouds
5:53 PM 46.0°F 30.0°F 54% 30.10 in 10.0 miles WSW 21.9 mph 32.2 mph N/A   Clear
6:53 PM 42.1°F 30.9°F 65% 30.14 in 10.0 miles WSW 23.0 mph 28.8 mph N/A   Scattered Clouds
7:53 PM 39.9°F 28.9°F 65% 30.16 in 10.0 miles WSW 17.3 mph 23.0 mph N/A   Scattered Clouds
8:53 PM 37.9°F 28.0°F 68% 30.18 in 10.0 miles WSW 13.8 mph - N/A   Clear
9:53 PM 37.0°F 28.0°F 70% 30.21 in 10.0 miles SW 15.0 mph - N/A   Clear
10:53 PM 37.0°F 27.0°F 67% 30.22 in 10.0 miles SW 13.8 mph - N/A   Clear
11:53 PM 36.0°F 27.0°F 70% 30.25 in 10.0 miles SW 12.7 mph - N/A   Partly Cloudy
Moon Phase
Feb. 25 Feb. 25 Mar. 04 Mar. 11 Mar. 19
Sunrise:06:42 AM (PST) Moon Rise:06:00 PM (PST)2/25
Sunset:05:37 PM (PST) Moon Set:06:12 AM (PST)2/25

Copyright © 2014 The Weather Underground, Inc.